Tracking 29892 objects as of 21-Nov-2024
HD Live streaming from Space Station
objects crossing your sky now

STARLINK-30129

Track STARLINK-30129 now!
10-day predictions
STARLINK-30129 is classified as:


NORAD ID: 56689
Int'l Code: 2023-067B
Perigee: 565.5 km
Apogee: 566.9 km
Inclination: 43.0 °
Period: 95.8 minutes
Semi major axis: 6937 km
RCS: Unknown
Launch date: May 19, 2023
Source: United States (US)
Launch site: AIR FORCE EASTERN TEST RANGE (AFETR)
Your satellite tracking list
Your tracking list is empty




NASA's NSSDC Master Catalog

Two Line Element Set (TLE):
1 56689U 23067B   24325.36044510  .00000849  00000-0  77881-4 0  9997
2 56689  43.0033 332.2351 0000989 265.9058  94.1671 15.02542165 84303
Source of the keplerian elements: AFSPC